[[{"header":{"parameterUnit":"m.s-1","parameterCategory":1,"la1":30.2991,"la2":30.254,"lo1":-89.0895,"lo2":-89.0444,"dy":0.0017,"dx":0.0017,"nx":28,"ny":28,"refTime":"2025-03-11T09:00:00:Z","depth":0,"parameterNumber":2,"parameterNumberName":"U-component_of_WINDS"},"data":[0,0,0,0,0,0,0,0,0,0,0,0,0,0,0,0,0,0,0,0,0,0,0,0,0,0,0,0,0,0,0,0,0,0,0,0,0,0,0,0,0,0,0,0,0,0,0,0,0,0,0,0,0,0,0,0,0,0,0.1633,0.1635,0,0.1751,0.1752,0.1753,0.1816,0.1816,0.1816,0.1816,0.1939,0.1942,0.1945,0,0,0,0,0,0,0,0,0,0,0,0,0,0.1463,0.1466,0.1633,0.1635,0.1636,0.1751,0.1752,0.1754,0.1816,0.1816,0.1816,0.1816,0.1938,0.1942,0.1945,0,0,0,0,0,0,0,0,0,0,0,0,0,0.1554,0.1466,0.1633,0.1681,0.1686,0.175,0.1752,0.1754,0.1816,0.1816,0.1816,0.1816,0.1937,0.1941,0.1946,0.1972,0,0,0.1961,0.1963,0,0,0,0,0,0,0,0,0.1549,0.156,0.1672,0.1678,0.1684,0.1769,0.1737,0.1827,0.1816,0.1767,0.1816,0.1816,0.1882,0.1892,0.1913,0.1978,0.1983,0.1961,0.1964,0.1966,0.1967,0,0,0,0,0,0,0,0.1542,0.1556,0.168,0.1674,0.1681,0.1696,0.171,0.1755,0.1822,0.1771,0.1776,0.1789,0.1886,0.1909,0.1917,0.1985,0.1961,0.1965,0.1968,0.197,0.2074,0.2074,0,0,0,0,0,0,0.1528,0.155,0.1676,0.1683,0.1615,0.1699,0.1714,0.1741,0.1822,0.1834,0.1788,0.1791,0.19,0.1911,0.1921,0.1956,0.1966,0.197,0.1973,0.2074,0.2074,0.2074,0,0,0,0,0,0,0.1524,0.1539,0.1671,0.1618,0.1636,0.1702,0.1732,0.1744,0.1767,0.1835,0.1848,0.1799,0.1901,0.1915,0.1958,0.1961,0.1972,0.1977,0.2075,0.2074,0.2074,0.2026,0,0,0,0,0,0,0.1519,0.1537,0.1548,0.1618,0.1639,0.1706,0.1732,0.1746,0.1774,0.1779,0.1849,0.1861,0.1902,0.1951,0.1963,0.1968,0.1981,0.2075,0.2075,0.2074,0.2027,0.2024,0.2021,0,0,0,0,0,0.1513,0.1531,0.1548,0.1563,0.1653,0.1706,0.1718,0.1765,0.1774,0.1786,0.1829,0.1858,0.1958,0.1955,0.1969,0.1975,0.2075,0.2075,0.2074,0.2029,0.2024,0.2021,0,0,0,0,0,0,0.1461,0.1541,0.1561,0.1602,0.1647,0.1717,0.1733,0.1759,0.1803,0.1806,0.1863,0.1878,0.1916,0.195,0.1945,0.2003,0.202,0.2022,0.198,0.1976,0.1973,0.1964,0.1985,0,0,0,0,0,0.1454,0.149,0.1558,0.1588,0.1609,0.1666,0.1691,0.1723,0.1772,0.1792,0.1838,0.1885,0.1927,0.1954,0.1996,0.2032,0.2047,0.2043,0.204,0.2037,0.2039,0.2058,0.2056,0.2074,0.2074,0.2074,0,0,0.1441,0.1489,0.1509,0.1578,0.1617,0.1652,0.1682,0.1719,0.1746,0.1798,0.1841,0.1877,0.1933,0.1972,0.1991,0.2001,0.2037,0.2037,0.2034,0.2037,0.2057,0.2056,0.2054,0.2074,0.2074,0.2074,0,0,0.1435,0.1475,0.1503,0.154,0.1597,0.1635,0.1641,0.1706,0.1731,0.1776,0.1814,0.1847,0.1918,0.1956,0.1984,0.1988,0.2016,0.2,0.1984,0.2002,0.2001,0.2,0.2,0.1999,0.2002,0.2002,0.2002,0,0.1412,0.1467,0.1514,0.1548,0.1577,0.1623,0.1651,0.1685,0.1753,0.1772,0.1782,0.187,0.1912,0.1959,0.1959,0.1981,0.199,0.1993,0.1997,0.1996,0.1996,0.1997,0.1997,0.1999,0.2,0.2,0.2,0,0.1434,0.1472,0.1487,0.155,0.158,0.1611,0.1663,0.1688,0.1716,0.1753,0.1796,0.1846,0.1898,0.1912,0.1941,0.1963,0.1967,0.1986,0.2003,0.1991,0.1993,0.1994,0.1996,0.1997,0.1998,0.1998,0,0,0.1402,0.1487,0.1492,0.152,0.1585,0.1615,0.1646,0.1696,0.1716,0.1761,0.1788,0.1846,0.1863,0.1895,0.1928,0.1944,0.1941,0.1961,0.1963,0.1954,0.1967,0.1951,0.1951,0.196,0.196,0.196,0.1961,0,0.1404,0.1464,0.1506,0.1549,0.1583,0.1625,0.1653,0.1695,0.1729,0.1763,0.1801,0.184,0.186,0.1879,0.1897,0.1938,0.1944,0.1938,0.1986,0.1987,0.197,0.1952,0.1937,0.1936,0.1963,0.1963,0.1963,0,0.1416,0.1457,0.1503,0.1561,0.1577,0.1601,0.1648,0.168,0.1728,0.1751,0.1785,0.1818,0.1853,0.1866,0.1914,0.1909,0.193,0.1953,0.1954,0.1961,0.1974,0.1957,0.1937,0.1936,0.1965,0.1964,0.1964,0,0.1386,0.1453,0.1488,0.1511,0.158,0.1595,0.1625,0.1673,0.1699,0.174,0.1757,0.1802,0.1827,0.1861,0.1905,0.1911,0.1948,0.1965,0.1968,0.1967,0.1975,0.1973,0.1956,0.1989,0.1989,0.1989,0.1989,0,0.1385,0.1411,0.1475,0.1497,0.1527,0.1574,0.1602,0.1635,0.1677,0.1705,0.1745,0.1771,0.1827,0.186,0.1894,0.1928,0.1939,0.1959,0.1967,0.1955,0.1952,0.197,0.1971,0.1989,0.1989,0.1989,0.1989,0,0.1358,0.1402,0.1443,0.1503,0.1519,0.1538,0.159,0.1612,0.1647,0.1682,0.1693,0.1748,0.1787,0.1834,0.189,0.1913,0.1943,0.1957,0.1927,0.1932,0.1931,0.193,0.1925,0.1926,0.1957,0.1957,0.1957,0,0.1354,0.1375,0.1436,0.1457,0.1485,0.1519,0.1545,0.1591,0.1617,0.1671,0.1686,0.1728,0.1765,0.1826,0.1871,0.1913,0.1928,0.1923,0.1934,0.192,0.1926,0.1924,0.1926,0.192,0.1919,0.1919,0.1918,0,0.1342,0.1362,0.1398,0.144,0.1469,0.1505,0.1542,0.1557,0.1611,0.1637,0.1678,0.1705,0.176,0.1801,0.1848,0.1879,0.1907,0.1914,0.1916,0.1904,0.1885,0.1894,0.1917,0.1914,0.1915,0.1915,0.1915,0.1915,0.1327,0.1346,0.1391,0.1428,0.1461,0.1494,0.1517,0.1553,0.1587,0.1634,0.166,0.1699,0.1743,0.1809,0.1838,0.1869,0.1879,0.1883,0.1884,0.1884,0.188,0.1879,0.1878,0.1878,0.1878,0.1878,0.1878,0,0.1316,0.1347,0.138,0.143,0.1459,0.1481,0.1522,0.1545,0.1578,0.1617,0.1651,0.1695,0.1735,0.1781,0.1823,0.1838,0.1852,0.1848,0.1847,0.1853,0.1869,0.1862,0.1836,0.1836,0.1836,0.1836,0.1836,0.1836,0.1315,0.1347,0.1372,0.142,0.1451,0.1488,0.1509,0.154,0.157,0.1618,0.165,0.1679,0.172,0.1765,0.1801,0.1814,0.1827,0.1818,0.1834,0.1849,0.1852,0.1856,0.185,0.1821,0.1821,0.1816,0.1816,0.1816]},{"header":{"parameterUnit":"m.s-1","parameterCategory":1,"la1":30.2991,"la2":30.254,"lo1":-89.0895,"lo2":-89.0444,"dy":0.0017,"dx":0.0017,"nx":28,"ny":28,"refTime":"2025-03-11T09:00:00:Z","depth":0,"parameterNumber":3,"parameterNumberName":"V-component_of_WINDS"},"data":[0,0,0,0,0,0,0,0,0,0,0,0,0,0,0,0,0,0,0,0,0,0,0,0,0,0,0,0,0,0,0,0,0,0,0,0,0,0,0,0,0,0,0,0,0,0,0,0,0,0,0,0,0,0,0,0,0,0,4.1914,4.1916,0,4.2078,4.208,4.2082,4.2095,4.2093,4.2091,4.2089,4.2254,4.2259,4.2265,0,0,0,0,0,0,0,0,0,0,0,0,0,4.1607,4.1613,4.1914,4.1916,4.1918,4.2078,4.208,4.2083,4.2095,4.2093,4.2091,4.2088,4.2252,4.2259,4.2266,0,0,0,0,0,0,0,0,0,0,0,0,0,4.1753,4.1615,4.1914,4.1944,4.1948,4.2078,4.208,4.2083,4.2095,4.2093,4.209,4.2087,4.2249,4.2258,4.2267,4.2377,0,0,4.2295,4.2299,0,0,0,0,0,0,0,0,4.1744,4.1764,4.1937,4.1942,4.1947,4.2063,4.2032,4.2181,4.2096,4.2039,4.2089,4.2086,4.2192,4.2206,4.2242,4.2384,4.2391,4.2296,4.2301,4.2305,4.2307,0,0,0,0,0,0,0,4.1734,4.1757,4.1979,4.194,4.1946,4.1948,4.1965,4.2061,4.2129,4.2044,4.2045,4.2065,4.2194,4.2234,4.2246,4.2394,4.2295,4.2303,4.2309,4.2312,4.2633,4.2636,0,0,0,0,0,0,4.1719,4.1748,4.1974,4.1984,4.1837,4.1955,4.1975,4.2029,4.2128,4.214,4.2067,4.2065,4.2219,4.2236,4.2252,4.2387,4.2305,4.2313,4.2319,4.263,4.2634,4.2637,0,0,0,0,0,0,4.1712,4.1739,4.1967,4.1867,4.1896,4.1964,4.2023,4.2033,4.2073,4.2145,4.2157,4.2095,4.2218,4.2239,4.2346,4.2393,4.2317,4.2326,4.2626,4.2631,4.2635,4.2657,0,0,0,0,0,0,4.1704,4.1737,4.178,4.1868,4.1901,4.2059,4.2026,4.2038,4.2089,4.2087,4.2174,4.2186,4.2218,4.2332,4.2355,4.2404,4.2333,4.2622,4.2629,4.2634,4.2653,4.2662,4.267,0,0,0,0,0,4.1693,4.1779,4.1782,4.1809,4.1957,4.2062,4.2081,4.2117,4.2092,4.2136,4.2182,4.2183,4.2384,4.2343,4.2369,4.2421,4.262,4.2627,4.2634,4.2649,4.266,4.267,0,0,0,0,0,0,4.1694,4.1791,4.1796,4.1913,4.1979,4.2064,4.212,4.2128,4.2201,4.2197,4.2236,4.2256,4.2361,4.2401,4.2354,4.2532,4.2499,4.2511,4.2502,4.2513,4.2522,4.251,4.234,0,0,0,0,0,4.1708,4.1787,4.1866,4.1962,4.1995,4.2052,4.2099,4.2121,4.219,4.2218,4.2272,4.2339,4.2417,4.2467,4.2543,4.2658,4.2677,4.2707,4.2715,4.2722,4.2732,4.2796,4.281,4.266,4.266,4.266,0,0,4.1738,4.18,4.1847,4.1964,4.2018,4.2097,4.2075,4.216,4.2219,4.223,4.2335,4.2377,4.2453,4.2564,4.2616,4.2602,4.2778,4.2731,4.2736,4.2743,4.2804,4.2818,4.2831,4.2665,4.2664,4.2663,0,0,4.1832,4.1888,4.1974,4.2029,4.2111,4.2148,4.2168,4.2252,4.2281,4.2386,4.2396,4.2466,4.2599,4.2653,4.2698,4.2813,4.2816,4.2836,4.2882,4.2943,4.2955,4.2965,4.3006,4.302,4.2846,4.2846,4.2846,0,4.1859,4.198,4.2017,4.2102,4.2152,4.2167,4.2254,4.2305,4.2407,4.2441,4.2423,4.2591,4.2643,4.2767,4.2795,4.2831,4.2855,4.2826,4.295,4.2961,4.2972,4.3011,4.3026,4.2848,4.2848,4.2847,4.2847,0,4.2008,4.2091,4.215,4.225,4.2307,4.2392,4.2441,4.2494,4.251,4.2549,4.2655,4.2719,4.2807,4.2838,4.2855,4.2964,4.2953,4.2942,4.291,4.2987,4.3024,4.304,4.2851,4.285,4.2849,4.2849,0,0,4.2108,4.2227,4.2248,4.2294,4.2385,4.245,4.2535,4.2623,4.2667,4.2737,4.2808,4.2921,4.2912,4.2963,4.2985,4.3039,4.3125,4.3022,4.3024,4.3038,4.3249,4.3256,4.3272,4.3127,4.313,4.3133,4.3242,0,4.2213,4.2367,4.2402,4.2534,4.2611,4.2626,4.27,4.2763,4.2801,4.2871,4.2912,4.2991,4.2973,4.3004,4.3058,4.3103,4.3167,4.3095,4.3193,4.3196,4.3174,4.3292,4.33,4.34,4.3257,4.3259,4.3261,0,4.2356,4.243,4.257,4.2651,4.2684,4.275,4.2833,4.29,4.2972,4.2995,4.3052,4.3069,4.3156,4.312,4.324,4.319,4.3232,4.326,4.3265,4.3275,4.3233,4.3305,4.3433,4.3448,4.3284,4.3282,4.3281,0,4.2415,4.255,4.265,4.2688,4.2786,4.2832,4.2874,4.2943,4.2993,4.3065,4.3098,4.3179,4.3223,4.3284,4.3321,4.3291,4.3439,4.3405,4.3459,4.3459,4.349,4.3487,4.3626,4.3517,4.3517,4.3517,4.3516,0,4.2529,4.2613,4.2678,4.274,4.2835,4.2874,4.2966,4.3008,4.3069,4.3138,4.3156,4.322,4.3266,4.3336,4.3365,4.346,4.348,4.35,4.3507,4.3499,4.3496,4.3527,4.3521,4.3521,4.352,4.3519,4.3518,0,4.2611,4.2658,4.2769,4.2852,4.2874,4.294,4.3011,4.307,4.3108,4.3196,4.3218,4.3277,4.3361,4.3404,4.3508,4.3528,4.3634,4.3637,4.3611,4.3613,4.3665,4.3659,4.3828,4.3852,4.3727,4.3728,4.3729,0,4.268,4.2745,4.2836,4.2884,4.2928,4.3005,4.3057,4.3097,4.315,4.3236,4.3285,4.337,4.344,4.3572,4.3623,4.3702,4.3707,4.376,4.3719,4.3708,4.3707,4.3702,4.3709,4.3767,4.3769,4.377,4.377,0,4.2798,4.2818,4.2892,4.2975,4.3037,4.3103,4.3169,4.3207,4.3258,4.3316,4.3403,4.3457,4.3563,4.3646,4.3729,4.3771,4.3779,4.3783,4.38,4.3792,4.3774,4.3784,4.363,4.3779,4.3778,4.3778,4.3777,4.3777,4.2875,4.2934,4.3007,4.3089,4.3143,4.3204,4.3264,4.331,4.3383,4.3474,4.3493,4.3584,4.3652,4.3765,4.3809,4.3879,4.3868,4.3892,4.3898,4.3904,4.3906,4.3763,4.3894,4.3894,4.3894,4.3894,4.3894,0,4.2993,4.3041,4.3116,4.3208,4.3273,4.3276,4.3349,4.3402,4.3482,4.3546,4.3615,4.3713,4.3794,4.3851,4.3933,4.3978,4.3984,4.3998,4.3995,4.4004,4.3912,4.3889,4.3992,4.3992,4.3992,4.3992,4.3992,4.3992,4.3062,4.3162,4.319,4.3316,4.3363,4.3453,4.3494,4.355,4.3601,4.3711,4.3779,4.3816,4.3877,4.3963,4.4037,4.4052,4.408,4.4095,4.4109,4.4021,4.4011,4.4001,4.398,4.4101,4.4101,4.4196,4.4197,4.4198]}]]